Погода в Уровских Ключах

Россия / Забайкальский край     51°41′34″N   119°27′43″E
темп.,
°C
ветер,
м/с
пор.,
м/с
влажн.,
%
обл.,
%
осадки,
мм/ч
давл.,
гПа
погр.,
м
18 мая, вт
вт1800:00+5зсз1293100 0.0 100036
03:00+3сз229463 0.0 100232
06:00+3сз11856 0.0 100312
09:00+8сз25347 0.0 10031586
12:00+12зсз4825100 0.0 10013078
15:00+12з4823100 0.0 10003084
18:00+12з583596 0.0 10002107
21:00+5с11651 0.0 100211
19 мая, ср
ср1900:00+2ююв117821 0.0 100410
03:00+1зюз11835 0.0 100510
06:00+2ююз0066100 0.0 100510
09:00+9ююв2435100 0.0 1002560
12:00+8ююз4753100 0.2 10001239
15:00+5ссв2291100 3.9 1000488
18:00+3с2496100 4.1 999454
21:00+4зсз129570 4.1 100294
20 мая, чт
чт2000:00+1з11975 0.0 100410
03:000юз119794 0.0 100410
06:00+1зюз1194100 0.0 100630
09:00+6ююз2377100 0.0 1005353
12:00+12ююз1350100 0.0 10031410
15:00+12ююз3549100 0.0 10021733
18:00+9с238297 0.4 1004132
21:00+7ссв2291100 0.4 100560
21 мая, пт
пт2100:00+4ссв2398100 0.0 100783
03:00+5с2595100 0.4 1007211
06:00+4св2597100 0.1 1007224
09:00+7св51284100 0.3 1005575
12:00+8всв61183100 0.1 1004814
15:00+11св61067100 0.1 1001771
18:00+8св7138193 0.2 1001697
21:00+7всв51593100 1.4 1001660
22 мая, сб
сб2200:00+8в41295100 0.4 1000672
03:00+7ссв2497100 0.5 998166
06:00+6ссз2398100 0.0 999141
09:00+8св1189100 0.1 998406
12:00+8с2288100 0.4 999484
15:00+6ссз2389100 0.8 1000449
18:00+5ссз2594100 0.6 1001548
21:00+3зсз2896100 1.4 1003504